Location: Bartlow
(52.0833°N, 0.3167°E)
Time: 05:15:19
(UTC+00:00)

Cosmos 1867 - Pass Details

Date: 26 September 2023
Orbit: 774 x 800 km, 65.0° (Epoch: 29 November)

Event Time Altitude Azimuth Distance (km) Brightness Sun altitude
Rises 04:10:28 0° 317° (NW) 3,314 6.6 -15.9°
Reaches altitude 10° 04:12:56 10° 321° (NW) 2,383 5.8 -15.6°
Maximum altitude 04:18:23 62° 42° (NE) 899 4.1 -14.8°
Drops below altitude 10° 04:23:49 10° 123° (ESE) 2,374 6.6 -14.0°
Sets 04:26:16 0° 127° (SE) 3,300 7.3 -13.6°
